GFSNW_500_temp_273.txt.gz
Temp
-11 -11 -10 -9 -9 -9 -9 -9 -8 -7 -8 -7 -7 -7 -7 -8 -8 -7 -8 -8 -7 -7 -7 -7 -7 -7 -6 -6 -5 -5 -5 -5 -6 -6 -6 -6 -6 -6 -6 -7 -7 -6 -7 -6
-12 -11 -11 -10 -10 -9 -9 -9 -9 -8 -7 -7 -7 -7 -7 -7 -8 -7 -7 -7 -7 -7 -7 -7 -7 -7 -7 -7 -7 -6 -6 -5 -5 -6 -6 -6 -6 -6 -6 -6 -7 -6 -6 -7
-12 -12 -12 -11 -11 -10 -10 -10 -9 -9 -9 -7 -7 -7 -8 -7 -7 -7 -6 -7 -7 -6 -7 -7 -7 -7 -7 -7 -6 -6 -5 -5 -5 -6 -6 -6 -6 -6 -6 -6 -6 -6 -6 -6
-12 -12 -12 -12 -12 -11 -11 -10 -11 -9 -8 -8 -8 -8 -7 -7 -8 -7 -7 -6 -7 -7 -6 -7 -7 -7 -7 -7 -7 -6 -6 -6 -5 -6 -6 -6 -6 -6 -6 -7 -7 -7 -6 -7
-12 -13 -13 -13 -13 -12 -12 -12 -10 -9 -8 -8 -8 -8 -8 -7 -7 -8 -7 -7 -6 -7 -6 -7 -7 -7 -7 -7 -6 -6 -5 -5 -6 -5 -6 -7 -7 -7 -7 -7 -7 -7 -7 -7
-13 -14 -14 -14 -13 -13 -13 -12 -10 -9 -10 -10 -9 -9 -9 -8 -8 -7 -7 -7 -7 -6 -6 -7 -8 -8 -8 -7 -6 -6 -6 -6 -6 -5 -6 -7 -7 -7 -7 -7 -7 -7 -7 -7
-14 -15 -15 -15 -14 -14 -13 -13 -12 -12 -11 -10 -9 -10 -10 -10 -9 -8 -7 -8 -7 -7 -7 -7 -7 -7 -8 -8 -8 -7 -6 -6 -7 -7 -7 -7 -7 -7 -7 -7 -7 -7 -7 -7
-16 -16 -16 -16 -15 -15 -14 -13 -13 -13 -12 -11 -10 -9 -10 -11 -10 -9 -8 -7 -8 -8 -7 -6 -7 -8 -8 -8 -8 -8 -8 -7 -7 -7 -7 -7 -7 -8 -8 -8 -7 -8 -7 -7
-17 -17 -17 -17 -16 -15 -15 -14 -14 -14 -13 -13 -12 -10 -10 -11 -11 -11 -9 -8 -7 -8 -7 -7 -7 -8 -8 -8 -8 -8 -8 -9 -8 -8 -7 -7 -8 -8 -8 -8 -7 -7 -7 -7
-18 -18 -18 -17 -17 -16 -16 -15 -14 -14 -13 -13 -12 -12 -10 -10 -10 -8 -10 -9 -8 -7 -8 -7 -8 -8 -8 -8 -9 -8 -8 -8 -8 -9 -8 -8 -8 -7 -8 -8 -8 -7 -7 -8
-19 -19 -18 -18 -17 -17 -16 -15 -15 -14 -13 -11 -12 -12 -11 -10 -10 -9 -10 -10 -9 -8 -8 -8 -7 -8 -8 -8 -8 -8 -8 -8 -8 -8 -9 -9 -7 -7 -7 -7 -7 -6 -7 -8
-19 -19 -18 -18 -18 -17 -16 -16 -15 -14 -14 -13 -12 -12 -12 -11 -10 -9 -10 -10 -9 -9 -9 -8 -9 -10 -9 -9 -9 -10 -9 -9 -8 -9 -8 -8 -7 -7 -6 -7 -6 -7 -8 -7
-19 -19 -19 -18 -17 -16 -16 -16 -15 -15 -14 -14 -13 -13 -12 -12 -11 -9 -9 -10 -9 -8 -9 -10 -9 -10 -10 -9 -10 -8 -8 -9 -9 -8 -8 -8 -8 -7 -7 -6 -7 -8 -8 -7
-20 -19 -19 -18 -17 -16 -16 -16 -16 -15 -15 -14 -13 -12 -12 -12 -11 -11 -11 -10 -9 -8 -9 -10 -10 -10 -9 -9 -9 -9 -9 -9 -8 -8 -8 -9 -7 -6 -7 -7 -8 -8 -8 -7
-20 -19 -19 -18 -17 -17 -16 -16 -17 -16 -15 -14 -13 -12 -11 -12 -11 -11 -11 -11 -9 -9 -9 -10 -10 -9 -9 -9 -9 -9 -8 -8 -7 -8 -8 -8 -8 -8 -8 -8 -8 -7 -7 -8
-20 -19 -19 -18 -18 -17 -16 -16 -16 -16 -16 -14 -13 -12 -12 -12 -11 -11 -11 -11 -9 -10 -11 -11 -10 -10 -9 -9 -8 -8 -8 -8 -8 -9 -7 -8 -8 -8 -8 -9 -8 -7 -8 -9
-20 -19 -18 -18 -17 -16 -16 -16 -16 -16 -16 -15 -14 -13 -13 -12 -12 -11 -11 -11 -11 -10 -11 -10 -10 -9 -9 -9 -9 -9 -9 -8 -9 -9 -8 -8 -8 -8 -9 -8 -8 -8 -9 -10
-19 -19 -18 -17 -17 -17 -16 -16 -16 -16 -16 -14 -13 -12 -12 -12 -11 -11 -11 -11 -11 -12 -12 -12 -10 -9 -9 -9 -9 -9 -8 -9 -9 -8 -9 -9 -8 -8 -9 -9 -8 -9 -9 -10
-19 -18 -18 -17 -17 -17 -16 -17 -16 -16 -15 -14 -12 -12 -12 -13 -12 -12 -11 -11 -11 -11 -11 -11 -11 -9 -9 -10 -9 -9 -9 -9 -9 -10 -10 -9 -9 -8 -9 -8 -8 -9 -10 -10
-19 -18 -18 -17 -17 -17 -17 -17 -16 -16 -15 -14 -13 -14 -13 -14 -13 -11 -11 -11 -11 -10 -10 -11 -10 -9 -9 -9 -9 -10 -10 -9 -9 -10 -9 -9 -9 -10 -9 -9 -10 -9 -10 -11
-19 -18 -17 -17 -17 -17 -17 -17 -16 -16 -15 -14 -14 -14 -13 -12 -12 -12 -12 -11 -11 -10 -10 -10 -10 -9 -9 -9 -10 -10 -10 -10 -9 -9 -9 -10 -11 -11 -10 -10 -10 -10 -10 -11
-18 -18 -17 -17 -17 -17 -17 -16 -16 -15 -15 -14 -13 -13 -13 -12 -12 -13 -12 -12 -12 -11 -11 -10 -10 -10 -9 -10 -10 -10 -10 -9 -10 -10 -10 -10 -11 -11 -11 -11 -11 -11 -11 -10
-18 -17 -17 -17 -17 -16 -16 -15 -15 -14 -14 -15 -14 -13 -13 -13 -11 -12 -12 -12 -12 -11 -11 -10 -10 -10 -10 -11 -11 -10 -10 -10 -11 -11 -11 -11 -12 -12 -12 -12 -12 -12 -12 -11
-17 -17 -17 -16 -16 -16 -16 -16 -16 -16 -16 -15 -15 -14 -11 -13 -12 -12 -12 -12 -11 -11 -10 -10 -11 -11 -11 -11 -11 -10 -11 -12 -12 -11 -11 -12 -11 -12 -12 -12 -12 -11 -11 -12
-17 -17 -16 -16 -15 -16 -15 -16 -15 -14 -14 -14 -14 -13 -12 -13 -13 -12 -12 -12 -12 -12 -11 -11 -12 -12 -12 -11 -12 -12 -12 -12 -12 -12 -12 -12 -12 -12 -12 -12 -12 -11 -11 -12
-17 -17 -16 -16 -15 -15 -15 -15 -15 -15 -14 -14 -13 -13 -12 -13 -13 -12 -12 -12 -12 -12 -11 -11 -12 -12 -11 -12 -12 -11 -11 -11 -12 -12 -12 -12 -12 -12 -12 -12 -12 -12 -12 -12
-17 -17 -16 -16 -15 -15 -15 -15 -15 -15 -14 -14 -13 -12 -12 -13 -13 -12 -12 -12 -12 -12 -12 -12 -12 -12 -12 -12 -12 -11 -11 -11 -11 -12 -12 -12 -12 -12 -12 -12 -12 -12 -12 -12

GFSNW_500_temp_279.txt.gz
Temp
-11 -11 -11 -11 -10 -9 -9 -8 -8 -8 -7 -7 -7 -7 -8 -8 -8 -8 -7 -7 -7 -6 -5 -5 -5 -6 -5 -5 -5 -5 -6 -7 -6 -7 -7 -7 -7 -7 -7 -7 -7 -7 -7 -6
-10 -11 -11 -10 -10 -10 -9 -9 -8 -8 -8 -7 -7 -7 -8 -8 -8 -8 -7 -7 -7 -6 -5 -5 -6 -6 -6 -5 -5 -5 -6 -6 -6 -6 -7 -7 -7 -7 -7 -7 -7 -6 -6 -7
-10 -10 -10 -11 -10 -10 -10 -9 -8 -8 -7 -7 -7 -7 -8 -8 -8 -8 -8 -7 -7 -7 -6 -6 -6 -6 -6 -5 -5 -6 -6 -6 -6 -6 -7 -7 -7 -7 -6 -7 -6 -6 -7 -7
-10 -10 -10 -10 -10 -10 -10 -9 -8 -8 -8 -7 -7 -7 -8 -8 -8 -8 -8 -8 -8 -7 -7 -7 -6 -6 -6 -6 -6 -5 -6 -6 -7 -7 -7 -7 -7 -7 -7 -6 -7 -6 -6 -6
-10 -10 -10 -10 -10 -10 -11 -10 -9 -8 -8 -8 -7 -7 -8 -8 -8 -7 -8 -8 -8 -8 -7 -7 -7 -7 -7 -6 -6 -6 -6 -6 -6 -6 -7 -7 -7 -7 -6 -6 -7 -5 -6 -7
-10 -10 -10 -10 -10 -10 -10 -10 -9 -9 -9 -8 -8 -7 -8 -8 -8 -8 -8 -8 -8 -8 -8 -8 -7 -7 -7 -7 -8 -7 -7 -6 -6 -6 -7 -7 -7 -6 -6 -6 -7 -7 -7 -7
-11 -11 -11 -10 -10 -10 -10 -10 -10 -10 -9 -9 -8 -8 -8 -8 -8 -8 -8 -8 -8 -8 -8 -8 -8 -8 -7 -7 -8 -7 -7 -6 -6 -6 -6 -6 -6 -6 -6 -6 -7 -7 -7 -7
-11 -11 -11 -11 -11 -11 -10 -11 -10 -10 -10 -9 -9 -9 -8 -8 -8 -8 -8 -8 -9 -8 -8 -8 -8 -8 -8 -7 -7 -6 -5 -5 -6 -5 -5 -5 -6 -6 -6 -6 -7 -7 -7 -8
-12 -11 -11 -11 -11 -11 -11 -11 -11 -11 -10 -10 -10 -10 -9 -9 -8 -8 -8 -8 -8 -8 -8 -8 -8 -8 -8 -8 -7 -7 -6 -5 -5 -5 -5 -5 -5 -5 -6 -6 -7 -7 -7 -8
-12 -12 -12 -12 -12 -12 -11 -11 -11 -11 -11 -11 -10 -10 -10 -9 -9 -9 -9 -8 -8 -8 -8 -8 -8 -8 -8 -8 -7 -7 -6 -5 -5 -5 -5 -5 -6 -6 -6 -6 -7 -7 -7 -8
-13 -13 -13 -13 -13 -13 -12 -12 -12 -12 -12 -13 -12 -11 -10 -10 -10 -9 -9 -9 -8 -8 -8 -8 -8 -8 -8 -8 -8 -7 -7 -6 -6 -5 -5 -5 -6 -7 -7 -7 -7 -8 -8 -8
-14 -15 -15 -15 -15 -14 -14 -14 -13 -13 -14 -14 -13 -12 -11 -11 -11 -10 -10 -10 -9 -8 -8 -8 -8 -8 -8 -8 -8 -8 -7 -6 -6 -6 -5 -6 -7 -7 -7 -6 -7 -7 -7 -8
-16 -16 -16 -16 -16 -16 -16 -15 -15 -15 -15 -15 -14 -14 -13 -12 -11 -11 -11 -11 -10 -8 -8 -8 -8 -8 -8 -8 -8 -8 -8 -7 -6 -6 -6 -6 -7 -8 -7 -8 -8 -7 -8 -9
-17 -17 -17 -17 -17 -17 -17 -17 -17 -17 -16 -15 -15 -14 -14 -13 -12 -12 -11 -11 -11 -10 -9 -8 -8 -8 -8 -8 -8 -8 -8 -8 -7 -7 -7 -8 -8 -8 -8 -8 -8 -8 -9 -8
-18 -18 -18 -18 -18 -19 -19 -19 -18 -18 -17 -16 -16 -15 -14 -12 -12 -12 -12 -11 -11 -11 -10 -9 -9 -8 -8 -8 -8 -8 -7 -8 -8 -7 -8 -8 -8 -7 -7 -8 -8 -9 -8 -8
-19 -19 -19 -19 -20 -20 -20 -19 -19 -18 -17 -16 -17 -15 -14 -12 -12 -12 -12 -12 -12 -11 -11 -10 -9 -9 -8 -8 -8 -8 -8 -8 -8 -8 -8 -8 -7 -8 -8 -8 -8 -9 -9 -9
-20 -20 -20 -21 -21 -20 -20 -19 -19 -19 -18 -17 -17 -15 -13 -12 -12 -12 -12 -12 -12 -11 -11 -10 -9 -10 -9 -9 -8 -8 -8 -8 -8 -8 -8 -8 -8 -8 -9 -9 -9 -9 -9 -9
-20 -21 -21 -21 -20 -20 -19 -19 -19 -18 -18 -17 -16 -15 -14 -13 -13 -12 -12 -12 -11 -11 -11 -11 -10 -10 -10 -9 -9 -9 -9 -9 -9 -9 -9 -9 -9 -9 -9 -10 -9 -9 -9 -9
-21 -21 -20 -20 -20 -19 -19 -18 -17 -17 -17 -16 -15 -15 -14 -13 -12 -13 -12 -11 -11 -11 -11 -10 -10 -10 -11 -10 -10 -9 -10 -10 -10 -10 -10 -10 -10 -10 -10 -9 -9 -9 -9 -9
-21 -20 -20 -20 -19 -19 -19 -19 -17 -17 -16 -16 -15 -15 -13 -13 -12 -12 -12 -11 -11 -10 -11 -11 -10 -9 -10 -11 -11 -11 -10 -9 -9 -10 -10 -10 -10 -9 -9 -9 -9 -9 -9 -9
-20 -20 -20 -19 -19 -19 -18 -17 -17 -16 -16 -16 -16 -15 -14 -13 -12 -12 -12 -12 -11 -11 -11 -10 -10 -10 -11 -11 -11 -10 -10 -10 -10 -10 -10 -10 -10 -10 -10 -10 -9 -9 -10 -10
-20 -19 -19 -19 -19 -18 -17 -17 -17 -16 -16 -16 -16 -15 -14 -13 -13 -13 -13 -13 -11 -11 -11 -11 -10 -12 -11 -11 -10 -10 -10 -10 -10 -10 -10 -10 -10 -10 -10 -10 -10 -10 -10 -10
-20 -19 -19 -18 -18 -17 -17 -16 -16 -16 -16 -16 -16 -15 -14 -13 -13 -12 -12 -12 -11 -11 -11 -10 -11 -11 -11 -10 -10 -10 -10 -10 -10 -10 -10 -10 -10 -10 -10 -10 -10 -11 -11 -11
-19 -19 -18 -18 -17 -17 -16 -16 -16 -16 -16 -16 -16 -15 -14 -14 -13 -12 -12 -11 -11 -11 -10 -9 -10 -10 -10 -10 -10 -10 -10 -11 -11 -11 -11 -11 -11 -10 -11 -11 -11 -11 -11 -12
-18 -18 -18 -18 -17 -17 -16 -16 -16 -16 -15 -15 -15 -14 -14 -13 -13 -12 -12 -12 -10 -10 -9 -10 -11 -11 -11 -11 -11 -11 -12 -11 -11 -11 -11 -11 -11 -11 -11 -11 -11 -11 -11 -12
-18 -18 -17 -17 -17 -16 -16 -16 -16 -15 -15 -15 -14 -15 -14 -13 -13 -12 -12 -12 -11 -11 -11 -11 -10 -10 -11 -11 -11 -11 -11 -11 -10 -10 -11 -12 -12 -11 -11 -12 -11 -11 -11 -11
-17 -17 -17 -15 -16 -16 -16 -16 -16 -16 -15 -14 -14 -14 -14 -13 -12 -12 -12 -12 -12 -12 -11 -11 -12 -12 -12 -11 -11 -11 -11 -11 -11 -11 -11 -11 -11 -11 -11 -12 -12 -12 -12 -12

GFSNW_500_temp_282.txt.gz
Temp
-12 -12 -12 -12 -11 -10 -9 -9 -9 -9 -8 -8 -8 -8 -8 -7 -7 -7 -7 -6 -6 -5 -5 -6 -6 -6 -6 -6 -6 -5 -6 -6 -7 -7 -7 -7 -7 -8 -8 -8 -7 -7 -7 -7
-11 -11 -12 -11 -11 -10 -9 -9 -9 -8 -8 -8 -8 -8 -8 -8 -7 -7 -7 -7 -6 -6 -5 -5 -6 -7 -6 -6 -6 -6 -6 -6 -6 -7 -7 -7 -7 -7 -7 -7 -7 -7 -7 -7
-10 -11 -11 -11 -11 -10 -9 -9 -8 -8 -8 -8 -8 -7 -8 -8 -7 -8 -8 -8 -8 -7 -6 -6 -6 -7 -7 -6 -6 -6 -7 -7 -6 -7 -7 -6 -7 -7 -7 -7 -7 -7 -7 -7
-10 -10 -10 -11 -11 -10 -10 -9 -8 -8 -8 -8 -8 -8 -8 -8 -8 -7 -8 -8 -8 -8 -7 -6 -6 -7 -7 -7 -6 -6 -6 -6 -6 -7 -7 -7 -7 -7 -7 -7 -7 -7 -7 -7
-10 -10 -10 -10 -10 -10 -10 -9 -9 -9 -8 -8 -8 -8 -8 -8 -8 -8 -8 -8 -8 -8 -8 -7 -6 -7 -8 -7 -6 -6 -5 -5 -6 -7 -7 -7 -7 -7 -7 -7 -7 -7 -7 -7
-11 -10 -10 -10 -10 -10 -10 -10 -9 -9 -9 -8 -8 -8 -8 -8 -9 -8 -9 -9 -8 -8 -8 -8 -7 -7 -8 -8 -7 -7 -7 -6 -6 -6 -6 -6 -6 -6 -7 -7 -7 -6 -6 -7
-11 -11 -11 -10 -10 -10 -10 -10 -10 -9 -9 -9 -8 -8 -8 -8 -8 -9 -9 -9 -9 -9 -8 -8 -8 -7 -8 -8 -8 -7 -7 -6 -6 -6 -6 -6 -6 -6 -6 -6 -7 -6 -7 -7
-12 -11 -11 -11 -10 -10 -10 -10 -10 -10 -9 -9 -9 -8 -8 -8 -8 -9 -9 -9 -9 -9 -9 -9 -8 -8 -8 -8 -8 -8 -8 -8 -6 -6 -6 -5 -5 -5 -6 -6 -6 -6 -6 -7
-12 -12 -12 -12 -11 -11 -10 -10 -10 -10 -10 -10 -9 -9 -9 -8 -8 -9 -9 -9 -9 -9 -9 -9 -9 -8 -8 -8 -8 -8 -8 -6 -5 -5 -5 -5 -5 -6 -6 -6 -6 -7 -7 -7
-13 -13 -12 -12 -12 -11 -11 -10 -10 -10 -10 -10 -10 -10 -10 -9 -9 -8 -9 -9 -9 -9 -9 -9 -9 -9 -8 -8 -8 -8 -8 -7 -6 -6 -6 -5 -5 -6 -6 -6 -7 -7 -7 -7
-13 -13 -12 -12 -12 -12 -11 -11 -11 -10 -11 -11 -10 -10 -10 -10 -9 -9 -9 -9 -9 -9 -9 -9 -9 -8 -9 -8 -8 -8 -8 -8 -7 -6 -6 -6 -6 -6 -7 -7 -7 -7 -7 -8
-14 -13 -13 -13 -13 -13 -12 -12 -11 -11 -11 -11 -11 -10 -10 -10 -10 -9 -9 -10 -9 -9 -9 -9 -9 -8 -8 -9 -9 -8 -8 -8 -7 -7 -7 -7 -7 -7 -7 -7 -7 -8 -7 -8
-14 -14 -14 -14 -14 -14 -13 -13 -13 -12 -12 -12 -11 -12 -12 -11 -10 -10 -10 -10 -10 -9 -9 -9 -9 -9 -8 -8 -8 -9 -9 -8 -8 -7 -7 -7 -7 -7 -7 -7 -7 -8 -9 -9
-15 -15 -15 -16 -16 -15 -15 -14 -14 -14 -13 -12 -13 -13 -12 -12 -11 -10 -11 -11 -11 -10 -9 -9 -9 -9 -8 -8 -8 -8 -8 -9 -8 -8 -7 -7 -8 -8 -8 -8 -9 -9 -9 -9
-17 -17 -17 -17 -17 -17 -16 -16 -16 -15 -15 -14 -14 -13 -13 -13 -12 -11 -11 -11 -11 -10 -9 -9 -9 -9 -9 -9 -8 -8 -8 -8 -8 -8 -8 -8 -8 -8 -9 -9 -9 -9 -9 -9
-18 -18 -18 -18 -18 -18 -18 -17 -17 -17 -16 -16 -15 -14 -14 -14 -14 -12 -12 -12 -11 -11 -10 -10 -9 -9 -9 -8 -8 -8 -8 -9 -8 -8 -8 -8 -8 -9 -9 -9 -9 -9 -8 -9
-18 -18 -19 -19 -19 -19 -19 -18 -19 -18 -18 -17 -16 -16 -15 -15 -15 -13 -13 -12 -12 -11 -11 -11 -10 -9 -9 -9 -8 -8 -8 -8 -8 -8 -8 -8 -8 -9 -9 -9 -9 -9 -9 -9
-19 -20 -20 -20 -20 -20 -20 -20 -20 -20 -19 -19 -18 -17 -16 -15 -15 -14 -13 -13 -12 -12 -12 -11 -11 -10 -9 -9 -9 -9 -8 -8 -8 -9 -8 -8 -8 -9 -9 -9 -9 -9 -9 -9
-20 -20 -20 -21 -21 -21 -21 -21 -20 -20 -20 -19 -18 -18 -17 -15 -15 -14 -13 -13 -12 -12 -12 -12 -11 -10 -10 -9 -9 -9 -9 -9 -9 -9 -9 -9 -9 -9 -9 -9 -9 -9 -10 -9
-21 -21 -21 -21 -21 -21 -21 -20 -20 -20 -19 -18 -18 -18 -17 -16 -14 -13 -13 -13 -13 -12 -12 -12 -11 -11 -10 -10 -10 -10 -10 -9 -9 -9 -9 -9 -9 -9 -9 -9 -10 -10 -10 -9
-21 -21 -21 -21 -21 -21 -20 -20 -20 -19 -18 -18 -18 -17 -16 -16 -14 -14 -13 -13 -12 -13 -12 -12 -11 -11 -11 -11 -10 -10 -10 -10 -10 -10 -10 -10 -9 -10 -10 -10 -10 -9 -9 -9
-21 -21 -21 -20 -20 -20 -20 -19 -19 -18 -17 -17 -17 -17 -16 -16 -13 -14 -13 -12 -12 -12 -12 -11 -11 -11 -11 -10 -11 -10 -10 -10 -10 -10 -10 -9 -10 -10 -10 -10 -9 -9 -9 -9
-21 -20 -20 -20 -19 -19 -19 -18 -17 -17 -17 -17 -16 -16 -16 -15 -14 -13 -13 -12 -12 -12 -11 -11 -11 -11 -11 -11 -11 -11 -11 -10 -10 -10 -9 -10 -10 -10 -10 -9 -9 -9 -9 -10
-20 -20 -19 -19 -18 -18 -17 -17 -17 -17 -17 -17 -17 -16 -15 -14 -13 -13 -12 -12 -12 -12 -11 -10 -11 -10 -11 -11 -12 -11 -11 -10 -10 -10 -10 -10 -10 -9 -9 -10 -10 -10 -10 -10
-19 -19 -18 -18 -18 -17 -17 -17 -17 -16 -16 -16 -16 -15 -14 -13 -13 -13 -12 -12 -12 -11 -10 -11 -11 -11 -11 -11 -12 -11 -10 -10 -10 -10 -10 -9 -10 -10 -11 -11 -11 -11 -11 -11
-18 -18 -18 -18 -17 -17 -17 -16 -16 -16 -16 -16 -15 -15 -14 -14 -13 -12 -12 -12 -11 -11 -12 -12 -12 -12 -11 -12 -11 -11 -10 -10 -10 -10 -10 -10 -10 -11 -12 -12 -12 -11 -11 -11
-18 -17 -17 -17 -16 -16 -16 -16 -16 -16 -16 -15 -15 -14 -13 -14 -12 -12 -12 -12 -12 -11 -11 -11 -11 -11 -11 -11 -11 -11 -11 -11 -11 -11 -11 -11 -11 -12 -12 -12 -11 -11 -11 -12

GFSNW_500_temp_285.txt.gz
Temp
-12 -13 -14 -12 -13 -13 -12 -11 -10 -10 -9 -9 -9 -8 -8 -7 -7 -6 -6 -5 -5 -5 -5 -6 -5 -5 -5 -5 -5 -5 -5 -6 -7 -7 -6 -6 -7 -7 -7 -7 -8 -7 -7 -6
-11 -12 -13 -12 -13 -12 -11 -10 -10 -10 -9 -9 -9 -9 -8 -8 -7 -7 -6 -6 -6 -6 -6 -6 -6 -6 -6 -6 -6 -6 -5 -5 -6 -6 -7 -7 -7 -7 -7 -7 -8 -7 -7 -6
-11 -11 -12 -12 -12 -11 -10 -9 -9 -9 -9 -9 -9 -9 -8 -8 -8 -8 -7 -6 -6 -6 -6 -6 -6 -6 -6 -6 -6 -6 -7 -6 -6 -6 -7 -7 -7 -7 -7 -7 -7 -7 -7 -7
-11 -11 -11 -11 -11 -11 -10 -9 -8 -9 -9 -9 -9 -9 -8 -8 -8 -8 -8 -7 -7 -6 -6 -6 -7 -7 -6 -6 -6 -6 -6 -6 -6 -7 -8 -8 -7 -7 -7 -7 -7 -7 -7 -7
-11 -11 -11 -11 -11 -11 -10 -10 -9 -8 -8 -9 -9 -9 -9 -8 -8 -8 -9 -8 -8 -8 -7 -6 -6 -7 -7 -6 -6 -6 -6 -5 -6 -6 -7 -8 -8 -7 -7 -7 -7 -7 -7 -7
-11 -11 -11 -11 -11 -11 -11 -10 -10 -9 -8 -8 -8 -8 -8 -9 -9 -9 -9 -9 -9 -8 -8 -7 -7 -7 -7 -7 -6 -7 -6 -5 -6 -6 -7 -7 -7 -7 -7 -7 -7 -7 -7 -7
-11 -11 -11 -11 -11 -11 -11 -10 -10 -10 -9 -9 -8 -8 -8 -9 -9 -9 -9 -9 -9 -9 -9 -8 -7 -7 -7 -8 -7 -7 -6 -6 -6 -7 -7 -7 -6 -6 -6 -6 -6 -6 -7 -8
-12 -12 -11 -11 -11 -11 -11 -10 -10 -10 -10 -10 -9 -8 -8 -8 -9 -9 -9 -9 -9 -9 -9 -8 -8 -7 -8 -8 -8 -7 -8 -7 -7 -7 -6 -6 -6 -6 -6 -6 -6 -6 -7 -7
-13 -12 -12 -12 -11 -11 -11 -11 -10 -10 -10 -10 -10 -9 -9 -8 -9 -9 -9 -9 -9 -9 -9 -9 -8 -8 -8 -8 -8 -8 -8 -8 -7 -7 -6 -6 -6 -6 -6 -6 -6 -6 -7 -7
-13 -13 -13 -12 -12 -11 -11 -11 -11 -11 -10 -10 -10 -10 -9 -9 -9 -9 -9 -9 -10 -9 -9 -9 -9 -8 -8 -8 -8 -8 -8 -8 -7 -6 -6 -6 -7 -6 -6 -6 -7 -7 -7 -7
-14 -14 -13 -13 -12 -12 -12 -11 -11 -11 -11 -11 -10 -10 -10 -10 -9 -9 -9 -9 -10 -10 -10 -9 -9 -9 -8 -8 -8 -8 -8 -8 -7 -6 -7 -7 -7 -6 -6 -7 -7 -7 -7 -7
-14 -14 -13 -13 -13 -12 -12 -12 -12 -11 -12 -11 -11 -10 -10 -10 -10 -9 -9 -10 -9 -9 -10 -9 -9 -9 -9 -8 -8 -8 -8 -8 -8 -7 -7 -7 -7 -7 -7 -7 -7 -7 -7 -7
-14 -14 -14 -14 -13 -13 -13 -13 -12 -12 -12 -11 -11 -11 -10 -10 -10 -10 -10 -10 -10 -10 -9 -9 -9 -9 -9 -9 -9 -9 -8 -8 -8 -8 -7 -7 -7 -7 -7 -8 -8 -7 -7 -7
-15 -14 -14 -14 -15 -14 -14 -13 -13 -13 -13 -12 -12 -11 -11 -11 -10 -10 -11 -10 -10 -10 -9 -9 -9 -9 -9 -9 -9 -9 -9 -9 -9 -8 -8 -8 -7 -8 -8 -8 -8 -8 -8 -7
-16 -16 -16 -16 -16 -16 -15 -15 -14 -14 -13 -13 -13 -12 -11 -11 -11 -11 -11 -10 -10 -10 -9 -9 -9 -9 -9 -9 -9 -9 -9 -9 -9 -8 -8 -8 -9 -9 -9 -8 -8 -8 -7 -8
-17 -17 -17 -17 -17 -17 -16 -16 -15 -15 -15 -14 -14 -13 -12 -11 -12 -12 -12 -11 -11 -10 -10 -10 -9 -9 -9 -9 -9 -9 -9 -9 -9 -9 -9 -9 -9 -9 -9 -8 -8 -8 -8 -8
-18 -18 -18 -18 -18 -18 -17 -17 -17 -16 -16 -15 -15 -14 -13 -12 -12 -13 -13 -12 -11 -10 -10 -10 -10 -10 -10 -9 -9 -9 -9 -9 -9 -9 -9 -9 -9 -9 -9 -8 -8 -8 -8 -8
-19 -19 -19 -19 -18 -18 -18 -18 -18 -17 -17 -16 -15 -15 -14 -13 -13 -13 -13 -12 -12 -11 -10 -10 -10 -10 -10 -9 -9 -9 -9 -9 -9 -9 -9 -9 -9 -9 -9 -8 -8 -8 -8 -8
-19 -19 -19 -19 -19 -19 -19 -19 -19 -19 -18 -17 -16 -16 -15 -14 -14 -14 -14 -13 -13 -12 -11 -11 -11 -11 -10 -9 -9 -9 -9 -9 -9 -9 -9 -9 -9 -9 -9 -8 -8 -8 -8 -9
-20 -20 -20 -20 -20 -20 -20 -20 -20 -20 -19 -18 -18 -17 -16 -15 -15 -14 -14 -13 -13 -12 -12 -12 -11 -11 -10 -10 -10 -9 -9 -9 -9 -9 -9 -9 -8 -8 -8 -8 -9 -9 -9 -9
-21 -21 -21 -21 -21 -21 -21 -21 -20 -20 -19 -19 -19 -18 -17 -16 -15 -15 -14 -14 -14 -13 -12 -12 -12 -11 -11 -11 -10 -10 -10 -10 -10 -9 -9 -8 -8 -8 -8 -9 -9 -9 -9 -9
-21 -21 -21 -21 -21 -21 -21 -20 -20 -20 -19 -19 -19 -19 -18 -16 -16 -15 -15 -14 -14 -13 -13 -13 -12 -11 -12 -11 -11 -11 -10 -10 -10 -9 -9 -9 -9 -9 -9 -10 -9 -9 -9 -9
-21 -21 -21 -21 -20 -20 -19 -19 -19 -19 -19 -19 -18 -18 -16 -16 -16 -15 -15 -14 -14 -13 -13 -12 -12 -12 -11 -11 -11 -11 -10 -10 -10 -10 -10 -10 -10 -10 -9 -9 -10 -9 -9 -9
-20 -20 -20 -19 -19 -19 -19 -19 -19 -18 -18 -18 -18 -18 -15 -14 -15 -15 -14 -14 -14 -13 -11 -10 -11 -11 -11 -11 -11 -11 -11 -11 -11 -11 -11 -10 -10 -10 -10 -10 -9 -9 -10 -10
-19 -19 -19 -19 -18 -19 -19 -18 -17 -17 -17 -17 -17 -16 -15 -15 -14 -14 -14 -13 -12 -10 -10 -11 -11 -11 -11 -11 -11 -11 -11 -11 -11 -11 -11 -11 -10 -10 -9 -9 -10 -10 -10 -10
-18 -18 -18 -18 -18 -17 -17 -17 -17 -17 -17 -16 -15 -14 -15 -14 -13 -14 -14 -13 -12 -12 -12 -11 -12 -11 -11 -10 -11 -11 -11 -11 -11 -11 -10 -10 -10 -10 -10 -10 -10 -11 -11 -11
-18 -18 -17 -17 -16 -17 -17 -17 -16 -16 -16 -16 -15 -14 -14 -14 -13 -13 -12 -12 -12 -11 -12 -12 -11 -11 -11 -11 -11 -11 -11 -11 -11 -11 -11 -10 -10 -10 -10 -11 -11 -11 -12 -11

GFSNW_500_temp_288.txt.gz
Temp
-12 -13 -14 -14 -14 -14 -14 -13 -12 -12 -11 -10 -9 -9 -8 -8 -7 -7 -6 -6 -5 -5 -5 -5 -5 -5 -5 -5 -5 -5 -6 -8 -7 -7 -7 -7 -7 -7 -7 -6 -6 -7 -7 -6
-12 -13 -13 -14 -14 -14 -13 -12 -12 -11 -11 -10 -10 -9 -9 -8 -8 -7 -6 -6 -6 -5 -5 -5 -5 -5 -5 -5 -5 -6 -6 -6 -7 -7 -7 -7 -7 -7 -7 -7 -7 -7 -6 -7
-12 -12 -13 -13 -13 -13 -13 -12 -12 -11 -10 -10 -9 -9 -9 -9 -8 -7 -7 -6 -6 -6 -6 -6 -6 -5 -5 -5 -5 -6 -7 -8 -7 -6 -7 -7 -6 -7 -7 -7 -6 -7 -7 -7
-12 -12 -12 -12 -12 -12 -12 -11 -11 -10 -10 -10 -10 -9 -9 -9 -8 -8 -7 -7 -6 -6 -6 -6 -6 -6 -6 -6 -5 -6 -7 -7 -7 -7 -7 -7 -7 -7 -7 -7 -7 -7 -7 -7
-12 -12 -12 -12 -11 -12 -11 -10 -10 -10 -10 -9 -9 -9 -9 -9 -9 -8 -8 -7 -7 -7 -7 -7 -6 -6 -6 -6 -5 -6 -6 -6 -7 -7 -7 -7 -8 -7 -7 -7 -7 -7 -7 -7
-12 -12 -12 -11 -11 -11 -12 -11 -10 -10 -9 -9 -9 -9 -9 -9 -9 -9 -8 -8 -7 -7 -7 -7 -6 -6 -5 -5 -6 -6 -6 -6 -6 -7 -7 -8 -8 -8 -7 -7 -7 -7 -7 -7
-12 -12 -12 -12 -11 -11 -11 -11 -11 -10 -9 -9 -9 -9 -9 -9 -9 -9 -9 -9 -8 -7 -7 -7 -7 -7 -7 -6 -6 -6 -6 -6 -6 -7 -7 -8 -7 -7 -7 -7 -7 -7 -6 -7
-12 -13 -12 -12 -12 -11 -11 -11 -11 -11 -10 -9 -9 -9 -9 -9 -9 -9 -9 -9 -9 -8 -8 -8 -7 -7 -7 -7 -6 -6 -6 -6 -6 -8 -6 -7 -8 -6 -7 -6 -6 -6 -6 -7
-13 -13 -13 -12 -12 -12 -11 -11 -11 -11 -11 -10 -9 -9 -9 -9 -9 -9 -9 -9 -9 -9 -9 -8 -7 -7 -7 -7 -7 -7 -7 -7 -6 -7 -8 -8 -8 -6 -6 -6 -6 -6 -6 -6
-13 -13 -13 -13 -13 -12 -12 -11 -11 -11 -11 -10 -10 -10 -9 -9 -9 -9 -9 -9 -9 -9 -9 -9 -8 -8 -8 -8 -8 -7 -7 -7 -7 -7 -8 -8 -7 -6 -7 -6 -7 -6 -6 -6
-14 -14 -13 -13 -13 -13 -12 -12 -12 -11 -11 -11 -10 -10 -9 -9 -9 -9 -9 -9 -10 -10 -9 -9 -9 -8 -8 -8 -8 -8 -7 -8 -7 -8 -8 -8 -6 -7 -7 -6 -6 -6 -6 -6
-14 -14 -14 -13 -13 -13 -13 -12 -12 -12 -11 -10 -10 -10 -10 -10 -10 -10 -9 -9 -9 -9 -9 -9 -9 -9 -8 -8 -8 -8 -8 -8 -8 -8 -8 -7 -7 -7 -7 -7 -7 -7 -6 -6
-14 -14 -14 -14 -14 -14 -13 -13 -12 -12 -12 -11 -11 -10 -10 -10 -10 -10 -10 -10 -9 -9 -9 -9 -9 -9 -9 -8 -8 -8 -8 -8 -8 -8 -8 -8 -8 -8 -8 -8 -7 -7 -7 -7
-15 -15 -15 -15 -14 -14 -14 -13 -13 -13 -13 -12 -11 -10 -10 -10 -10 -10 -10 -10 -10 -9 -9 -9 -9 -9 -9 -9 -8 -8 -8 -8 -8 -8 -8 -8 -8 -8 -8 -8 -7 -7 -7 -7
-16 -16 -16 -15 -15 -15 -14 -14 -14 -14 -13 -13 -12 -11 -11 -11 -11 -11 -11 -10 -10 -10 -10 -9 -9 -9 -9 -9 -9 -8 -8 -8 -8 -8 -8 -8 -9 -8 -8 -8 -8 -7 -7 -7
-17 -17 -17 -16 -16 -16 -15 -15 -15 -14 -14 -14 -13 -12 -11 -11 -11 -11 -11 -11 -10 -10 -10 -10 -9 -9 -9 -9 -9 -9 -9 -8 -8 -8 -9 -9 -9 -9 -9 -8 -8 -8 -8 -8
-18 -18 -18 -17 -17 -17 -16 -16 -16 -15 -15 -14 -14 -13 -12 -12 -11 -11 -11 -11 -10 -10 -10 -10 -9 -9 -9 -9 -8 -8 -9 -9 -9 -9 -9 -9 -9 -9 -9 -9 -8 -8 -8 -8
-20 -19 -19 -18 -18 -18 -17 -17 -17 -16 -15 -15 -14 -13 -13 -13 -12 -12 -11 -11 -11 -10 -10 -10 -10 -10 -9 -9 -8 -9 -9 -9 -9 -9 -9 -9 -9 -9 -9 -8 -8 -8 -8 -8
-20 -20 -19 -19 -19 -18 -18 -18 -17 -17 -16 -15 -15 -15 -14 -14 -14 -13 -12 -12 -11 -11 -10 -10 -10 -10 -9 -8 -9 -9 -9 -9 -9 -9 -9 -9 -9 -9 -9 -9 -8 -8 -8 -8
-21 -20 -20 -19 -19 -19 -19 -18 -18 -17 -16 -16 -16 -15 -15 -15 -14 -14 -14 -13 -13 -12 -11 -11 -10 -10 -9 -9 -9 -9 -9 -9 -9 -9 -9 -9 -9 -9 -9 -9 -9 -8 -8 -8
-21 -20 -20 -20 -20 -19 -19 -19 -18 -18 -17 -17 -17 -16 -16 -15 -15 -15 -14 -14 -13 -12 -12 -11 -10 -9 -9 -10 -10 -10 -10 -10 -10 -10 -10 -10 -10 -9 -9 -9 -8 -8 -8 -8
-21 -21 -20 -20 -20 -20 -20 -20 -19 -19 -19 -19 -18 -17 -16 -16 -15 -15 -14 -14 -14 -12 -11 -11 -9 -10 -11 -11 -11 -11 -10 -10 -10 -10 -10 -9 -9 -9 -9 -9 -8 -8 -8 -9
-21 -21 -21 -21 -20 -20 -20 -20 -20 -20 -20 -20 -19 -18 -17 -16 -16 -15 -15 -14 -13 -12 -11 -9 -9 -11 -11 -12 -12 -11 -11 -10 -10 -10 -10 -10 -9 -9 -9 -9 -8 -8 -9 -9
-20 -20 -20 -20 -20 -20 -20 -20 -20 -20 -20 -19 -19 -18 -17 -17 -16 -15 -15 -14 -13 -13 -10 -9 -10 -11 -12 -12 -12 -12 -11 -10 -10 -11 -11 -10 -10 -10 -10 -9 -9 -9 -9 -10
-19 -19 -19 -19 -19 -19 -19 -19 -19 -19 -19 -19 -19 -18 -18 -17 -16 -14 -14 -14 -12 -10 -9 -9 -11 -12 -12 -12 -12 -12 -11 -11 -11 -11 -11 -11 -11 -11 -10 -10 -10 -10 -10 -10
-18 -18 -18 -18 -18 -18 -18 -18 -18 -18 -18 -18 -18 -16 -16 -16 -15 -15 -14 -13 -12 -11 -10 -11 -11 -12 -12 -12 -12 -11 -11 -11 -11 -11 -11 -12 -11 -10 -10 -10 -10 -10 -11 -11
-18 -18 -17 -17 -17 -17 -17 -17 -17 -17 -17 -16 -16 -16 -16 -16 -15 -15 -13 -13 -12 -12 -12 -12 -11 -12 -11 -12 -12 -12 -12 -12 -11 -11 -11 -11 -10 -10 -10 -11 -11 -11 -11 -11

GFSNW_500_temp_291.txt.gz
Temp
-12 -12 -13 -14 -15 -15 -15 -15 -15 -15 -14 -13 -11 -11 -10 -9 -8 -6 -6 -6 -8 -8 -8 -5 -5 -6 -6 -5 -5 -5 -6 -6 -6 -6 -6 -6 -6 -5 -5 -5 -4 -5 -4 -6
-12 -12 -13 -14 -14 -15 -14 -15 -14 -14 -13 -13 -12 -11 -11 -10 -8 -7 -7 -7 -8 -8 -8 -7 -6 -7 -5 -5 -5 -5 -6 -6 -6 -6 -6 -6 -6 -6 -5 -5 -5 -5 -5 -6
-12 -13 -13 -14 -14 -14 -15 -14 -14 -13 -13 -13 -14 -12 -12 -9 -8 -8 -8 -8 -7 -7 -8 -8 -6 -7 -7 -5 -5 -5 -6 -6 -5 -5 -6 -6 -6 -6 -6 -5 -4 -5 -5 -6
-12 -13 -13 -13 -14 -14 -14 -14 -13 -13 -12 -12 -11 -12 -10 -10 -9 -8 -8 -7 -6 -6 -6 -8 -7 -7 -5 -5 -5 -5 -5 -6 -5 -7 -6 -5 -6 -6 -6 -6 -6 -5 -5 -6
-12 -12 -13 -13 -13 -13 -13 -13 -13 -12 -12 -12 -12 -11 -11 -10 -10 -9 -9 -8 -8 -7 -8 -7 -6 -6 -5 -5 -5 -5 -6 -7 -6 -6 -6 -6 -6 -6 -6 -6 -6 -6 -6 -6
-12 -12 -12 -13 -13 -13 -12 -13 -12 -12 -11 -11 -11 -11 -10 -10 -11 -10 -9 -8 -7 -8 -8 -7 -6 -8 -7 -6 -5 -5 -6 -7 -7 -6 -6 -7 -7 -6 -6 -6 -7 -6 -6 -6
-12 -13 -12 -13 -12 -13 -12 -12 -12 -11 -11 -11 -11 -11 -10 -10 -9 -9 -9 -8 -8 -7 -6 -6 -6 -6 -6 -7 -7 -6 -6 -7 -7 -7 -7 -7 -6 -6 -7 -6 -7 -7 -7 -6
-13 -13 -13 -13 -12 -12 -12 -12 -12 -11 -11 -11 -10 -10 -9 -9 -9 -9 -9 -8 -7 -7 -7 -8 -7 -7 -7 -7 -6 -7 -7 -7 -7 -7 -7 -7 -7 -7 -7 -6 -7 -6 -7 -6
-13 -13 -13 -13 -13 -12 -12 -12 -12 -12 -11 -11 -10 -10 -10 -9 -10 -9 -9 -9 -8 -8 -8 -8 -7 -8 -7 -7 -7 -7 -8 -7 -7 -7 -6 -6 -7 -7 -7 -7 -7 -6 -6 -6
-14 -13 -13 -13 -13 -13 -12 -12 -12 -12 -11 -10 -10 -10 -10 -10 -9 -9 -9 -9 -9 -9 -8 -8 -9 -8 -8 -8 -7 -6 -8 -8 -8 -7 -7 -7 -6 -7 -7 -7 -7 -7 -6 -6
-14 -14 -14 -14 -13 -13 -12 -12 -12 -11 -11 -10 -11 -10 -10 -9 -9 -10 -8 -9 -10 -10 -9 -9 -9 -9 -8 -8 -8 -6 -7 -6 -8 -8 -7 -7 -7 -7 -7 -7 -6 -6 -6 -6
-15 -15 -14 -14 -14 -13 -13 -12 -12 -11 -11 -10 -10 -10 -10 -10 -9 -8 -8 -9 -9 -9 -9 -9 -10 -9 -9 -9 -8 -9 -7 -7 -8 -7 -7 -7 -7 -7 -7 -8 -6 -6 -6 -6
-15 -15 -15 -14 -14 -14 -13 -13 -12 -12 -12 -11 -11 -11 -11 -10 -10 -10 -10 -10 -9 -9 -9 -8 -8 -8 -9 -9 -8 -8 -8 -8 -8 -7 -7 -8 -7 -7 -7 -7 -7 -7 -7 -6
-16 -16 -15 -15 -14 -14 -14 -13 -13 -12 -12 -12 -11 -10 -10 -10 -10 -10 -10 -9 -9 -9 -9 -8 -9 -9 -8 -8 -9 -9 -8 -8 -8 -8 -8 -8 -8 -8 -8 -8 -8 -7 -7 -7
-17 -17 -16 -16 -15 -15 -15 -14 -14 -13 -12 -12 -11 -11 -11 -10 -10 -10 -10 -10 -10 -9 -10 -9 -9 -9 -8 -9 -8 -9 -9 -9 -9 -8 -8 -8 -8 -8 -8 -8 -8 -8 -7 -7
-18 -18 -17 -17 -16 -16 -16 -15 -14 -14 -13 -12 -12 -11 -11 -10 -10 -10 -10 -10 -10 -10 -10 -9 -9 -9 -8 -9 -8 -8 -9 -9 -8 -9 -9 -8 -8 -8 -8 -8 -8 -8 -8 -7
-19 -19 -18 -18 -17 -16 -16 -16 -16 -15 -14 -13 -12 -12 -11 -11 -11 -10 -10 -10 -10 -10 -10 -9 -9 -9 -8 -9 -8 -8 -9 -10 -9 -8 -9 -9 -8 -8 -8 -8 -9 -8 -8 -8
-20 -19 -19 -18 -18 -17 -17 -17 -16 -16 -15 -14 -13 -12 -12 -12 -11 -11 -11 -10 -10 -10 -10 -9 -10 -9 -8 -8 -8 -9 -9 -10 -8 -9 -9 -9 -9 -8 -9 -9 -9 -9 -8 -8
-21 -20 -20 -19 -18 -18 -18 -17 -17 -16 -16 -15 -14 -14 -13 -13 -12 -12 -11 -11 -10 -10 -10 -10 -10 -10 -8 -7 -8 -9 -9 -9 -8 -9 -9 -9 -9 -9 -9 -9 -9 -8 -9 -8
-21 -20 -20 -19 -19 -19 -18 -18 -17 -17 -16 -15 -16 -15 -14 -14 -13 -13 -12 -11 -10 -11 -10 -11 -10 -9 -8 -8 -8 -8 -9 -9 -9 -9 -9 -9 -9 -9 -9 -9 -9 -9 -9 -9
-21 -20 -20 -20 -19 -19 -18 -18 -18 -17 -16 -16 -16 -15 -15 -14 -14 -13 -13 -12 -11 -11 -10 -11 -10 -9 -8 -8 -8 -8 -8 -9 -9 -9 -9 -9 -9 -9 -9 -9 -9 -9 -9 -9
-21 -20 -20 -20 -19 -19 -19 -18 -18 -17 -17 -17 -16 -15 -15 -14 -14 -14 -14 -13 -12 -10 -11 -10 -9 -8 -9 -9 -9 -9 -9 -9 -9 -9 -9 -9 -9 -9 -9 -9 -9 -9 -9 -9
-20 -20 -20 -20 -19 -19 -19 -19 -19 -18 -18 -17 -16 -15 -15 -14 -14 -14 -14 -14 -12 -11 -10 -8 -8 -8 -9 -9 -9 -9 -9 -10 -10 -10 -10 -9 -9 -9 -9 -9 -9 -9 -9 -9
-20 -20 -20 -20 -20 -20 -20 -20 -20 -19 -18 -17 -17 -15 -15 -15 -15 -15 -14 -14 -13 -11 -9 -9 -9 -8 -9 -9 -10 -10 -10 -10 -11 -10 -10 -10 -10 -9 -10 -10 -10 -10 -10 -9
-19 -19 -19 -19 -19 -19 -19 -20 -19 -19 -19 -18 -18 -17 -16 -16 -16 -15 -14 -14 -11 -10 -10 -10 -9 -8 -8 -10 -11 -11 -11 -11 -10 -10 -11 -10 -10 -11 -11 -10 -10 -10 -10 -10
-18 -18 -18 -18 -18 -18 -19 -19 -19 -18 -18 -18 -18 -18 -17 -17 -16 -15 -13 -12 -12 -12 -11 -11 -9 -9 -10 -10 -11 -11 -12 -12 -12 -11 -11 -11 -11 -11 -11 -11 -11 -11 -10 -10
-17 -17 -17 -17 -17 -18 -17 -18 -17 -18 -18 -18 -17 -16 -16 -16 -16 -14 -13 -12 -12 -11 -11 -11 -10 -11 -10 -10 -11 -12 -12 -12 -11 -11 -11 -11 -11 -12 -11 -11 -11 -11 -11 -11

GFSNW_500_temp_297.txt.gz
Temp
-9 -9 -9 -9 -9 -10 -10 -10 -11 -10 -11 -11 -10 -7 -7 -8 -8 -8 -8 -8 -8 -8 -8 -6 -7 -5 -5 -5 -5 -6 -6 -6 -6 -6 -5 -4 -5 -6 -7 -6 -6 -6 -6 -6
-10 -10 -10 -10 -10 -11 -11 -11 -12 -12 -12 -12 -13 -12 -10 -9 -10 -8 -8 -8 -8 -8 -8 -7 -7 -6 -6 -5 -6 -5 -6 -5 -6 -6 -5 -5 -6 -5 -6 -5 -4 -5 -6 -5
-11 -11 -11 -11 -11 -11 -12 -12 -13 -13 -13 -14 -15 -15 -12 -10 -10 -8 -8 -8 -8 -8 -8 -8 -7 -6 -7 -6 -5 -5 -6 -6 -6 -7 -5 -5 -6 -6 -5 -5 -5 -6 -6 -5
-11 -12 -11 -11 -12 -12 -12 -13 -13 -13 -13 -15 -15 -15 -15 -13 -11 -9 -9 -8 -8 -8 -8 -7 -7 -7 -7 -7 -5 -5 -5 -6 -6 -6 -5 -5 -5 -5 -5 -5 -4 -5 -5 -5
-12 -12 -12 -12 -12 -13 -13 -13 -12 -14 -15 -15 -15 -13 -12 -12 -11 -11 -9 -8 -8 -8 -8 -7 -7 -7 -7 -7 -6 -6 -5 -6 -6 -6 -5 -6 -6 -5 -5 -5 -5 -4 -6 -6
-13 -13 -13 -12 -13 -13 -13 -14 -14 -15 -14 -15 -14 -14 -12 -12 -13 -12 -11 -8 -8 -8 -7 -7 -7 -7 -7 -7 -6 -5 -5 -6 -5 -6 -7 -5 -5 -5 -5 -6 -6 -6 -6 -6
-13 -14 -13 -13 -13 -14 -14 -14 -15 -15 -14 -13 -14 -13 -12 -13 -11 -11 -11 -9 -9 -8 -8 -7 -7 -7 -7 -7 -7 -6 -5 -6 -5 -6 -6 -6 -6 -5 -5 -5 -6 -6 -6 -6
-15 -15 -14 -14 -14 -14 -14 -14 -14 -14 -14 -14 -14 -13 -12 -12 -12 -11 -11 -11 -8 -7 -8 -8 -7 -7 -7 -7 -6 -5 -5 -6 -6 -6 -6 -6 -5 -5 -5 -5 -6 -6 -6 -6
-15 -15 -15 -15 -15 -15 -14 -14 -14 -14 -15 -14 -13 -13 -12 -10 -11 -12 -11 -11 -8 -8 -8 -8 -7 -7 -7 -7 -7 -5 -5 -6 -6 -7 -6 -6 -6 -5 -6 -6 -6 -6 -6 -6
-17 -16 -15 -15 -15 -15 -15 -15 -14 -14 -14 -13 -13 -13 -12 -12 -11 -12 -10 -9 -9 -8 -8 -8 -8 -8 -7 -8 -7 -6 -5 -6 -6 -7 -7 -7 -6 -6 -6 -6 -6 -6 -6 -5
-18 -18 -16 -15 -16 -16 -15 -15 -15 -14 -14 -13 -12 -13 -11 -11 -10 -11 -11 -10 -9 -8 -8 -8 -8 -8 -8 -8 -8 -7 -6 -6 -6 -6 -6 -6 -6 -6 -6 -6 -6 -6 -6 -6
-20 -18 -18 -17 -16 -16 -16 -15 -15 -14 -14 -13 -13 -13 -12 -11 -11 -9 -11 -10 -10 -9 -9 -9 -8 -8 -9 -8 -7 -6 -6 -6 -7 -6 -6 -6 -6 -6 -6 -6 -7 -6 -6 -6
-20 -19 -18 -17 -16 -16 -16 -16 -15 -14 -15 -14 -13 -13 -13 -13 -12 -12 -11 -10 -9 -9 -9 -9 -9 -9 -9 -9 -7 -7 -6 -6 -7 -7 -7 -7 -6 -6 -6 -7 -7 -6 -6 -7
-20 -19 -19 -18 -17 -16 -16 -16 -16 -15 -14 -14 -14 -14 -14 -13 -13 -13 -11 -10 -9 -9 -9 -9 -9 -9 -9 -8 -8 -7 -7 -7 -7 -7 -7 -7 -7 -7 -7 -7 -7 -6 -6 -6
-21 -20 -19 -19 -17 -17 -16 -16 -15 -15 -14 -13 -13 -13 -13 -12 -13 -12 -12 -10 -10 -10 -10 -9 -9 -8 -8 -8 -8 -8 -8 -8 -7 -7 -7 -7 -7 -7 -7 -7 -7 -6 -6 -7
-21 -20 -20 -19 -18 -17 -17 -16 -16 -16 -15 -14 -13 -13 -12 -12 -12 -11 -11 -11 -10 -10 -10 -10 -9 -9 -9 -8 -8 -9 -7 -8 -8 -7 -7 -7 -7 -8 -7 -8 -8 -7 -6 -7
-21 -20 -20 -19 -18 -17 -16 -17 -16 -16 -15 -14 -13 -13 -12 -12 -12 -11 -10 -10 -11 -10 -10 -10 -9 -9 -8 -8 -9 -7 -8 -8 -8 -8 -8 -8 -8 -8 -8 -8 -8 -8 -8 -7
-21 -20 -20 -19 -19 -18 -17 -17 -16 -16 -16 -15 -14 -13 -12 -12 -12 -12 -11 -11 -10 -10 -10 -10 -9 -9 -8 -9 -9 -8 -7 -7 -8 -8 -7 -8 -8 -8 -8 -7 -8 -8 -8 -7
-21 -20 -19 -19 -18 -18 -19 -18 -18 -16 -16 -15 -14 -13 -12 -12 -12 -12 -11 -11 -11 -10 -10 -10 -10 -9 -9 -9 -9 -8 -8 -8 -8 -8 -8 -8 -9 -8 -8 -7 -7 -9 -8 -8
-20 -20 -19 -19 -19 -18 -18 -18 -18 -18 -17 -16 -15 -15 -13 -13 -12 -11 -11 -11 -11 -10 -10 -10 -10 -9 -8 -9 -9 -8 -8 -8 -9 -9 -8 -7 -7 -8 -9 -8 -7 -8 -7 -8
-20 -20 -19 -19 -18 -18 -18 -18 -18 -18 -18 -16 -16 -15 -14 -14 -13 -11 -11 -10 -10 -10 -10 -10 -9 -8 -8 -8 -9 -9 -9 -9 -9 -8 -8 -9 -9 -8 -6 -6 -5 -8 -8 -9
-20 -20 -19 -19 -18 -18 -18 -18 -18 -17 -17 -16 -16 -16 -15 -14 -13 -12 -11 -10 -9 -9 -9 -9 -8 -8 -8 -8 -8 -9 -9 -9 -9 -9 -9 -9 -9 -10 -8 -6 -6 -8 -9 -9
-19 -19 -19 -19 -19 -18 -18 -18 -17 -17 -17 -16 -16 -15 -14 -14 -13 -13 -12 -11 -11 -10 -9 -8 -8 -8 -8 -8 -8 -8 -8 -8 -9 -9 -9 -9 -9 -9 -8 -6 -6 -7 -9 -9
-18 -19 -19 -18 -18 -18 -18 -17 -17 -17 -17 -16 -16 -15 -14 -14 -13 -13 -12 -11 -11 -10 -9 -9 -8 -8 -8 -8 -7 -8 -7 -7 -7 -8 -9 -9 -9 -8 -8 -8 -9 -9 -9 -10
-18 -18 -18 -18 -18 -18 -17 -17 -17 -16 -16 -15 -15 -15 -14 -14 -13 -13 -12 -11 -10 -10 -10 -9 -8 -8 -8 -7 -7 -7 -6 -7 -7 -8 -8 -8 -8 -8 -7 -8 -9 -9 -9 -9
-17 -17 -17 -17 -18 -18 -18 -17 -17 -17 -16 -16 -15 -15 -14 -14 -13 -12 -12 -12 -11 -11 -10 -9 -9 -8 -8 -7 -8 -7 -7 -7 -7 -8 -9 -8 -7 -7 -8 -8 -9 -9 -9 -9
-16 -16 -17 -17 -17 -17 -18 -18 -17 -17 -17 -16 -15 -14 -14 -13 -12 -12 -12 -11 -11 -10 -9 -9 -9 -9 -8 -8 -8 -8 -8 -7 -7 -7 -8 -8 -8 -8 -8 -9 -10 -10 -10 -10